• In Hungary
  • List of Countries
  • For 7 days
  • Water Temperature
  • Satellite Maps
  • Weather Map
  • News
  • Weather Widgets
  • user-avatar
    Login

    Hourly Weather Habarovsk

    Today, 17 January, Wednesday

    Time Temperature Precipitation Wind Pressure Humidity
    00:00 -25°C° 0 mm 1 mps 752 mmHg 93%
    01:00 -27°C° 0 mm 1 mps 752 mmHg 93%
    02:00 -27°C° 0 mm 1 mps 753 mmHg 93%
    03:00 -25°C° 0 mm 1 mps 752 mmHg 93%
    04:00 -25°C° 0 mm 1 mps 753 mmHg 93%
    05:00 -25°C° 0 mm 1 mps 753 mmHg 93%
    06:00 -25°C° 0 mm 1 mps 753 mmHg 92%
    07:00 -25°C° 0 mm 1 mps 753 mmHg 92%
    08:00 -24°C° 0 mm 1 mps 753 mmHg 91%
    09:00 -23°C° 0 mm 1 mps 753 mmHg 90%
    10:00 -21°C° 0 mm 1 mps 753 mmHg 87%
    11:00 -19°C° 0 mm 1 mps 752 mmHg 85%
    12:00 -18°C° 0 mm 0 mps 752 mmHg 82%
    13:00 -17°C° 0 mm 1 mps 751 mmHg 84%
    14:00 -17°C° 0 mm 1 mps 751 mmHg 86%
    15:00 -16°C° 0 mm 1 mps 750 mmHg 87%
    16:00 -17°C° 0 mm 1 mps 750 mmHg 88%
    17:00 -17°C° 0 mm 1 mps 750 mmHg 89%
    18:00 -20°C° 0 mm 2 mps 749 mmHg 90%
    19:00 -20°C° 0 mm 2 mps 749 mmHg 90%
    20:00 -17°C° 0 mm 1 mps 749 mmHg 90%
    21:00 -17°C° 0 mm 1 mps 749 mmHg 91%
    22:00 -17°C° 0.1 mm 1 mps 749 mmHg 92%
    23:00 -17°C° 0.1 mm 1 mps 748 mmHg 93%

    Tomorrow, 18 January, Thursday

    Time Temperature Precipitation Wind Pressure Humidity
    00:00 -17°C° 0.1 mm 1 mps 748 mmHg 94%
    01:00 -17°C° 0.1 mm 1 mps 748 mmHg 95%
    02:00 -18°C° 0.1 mm 1 mps 747 mmHg 95%
    03:00 -18°C° 0.1 mm 1 mps 747 mmHg 96%
    04:00 -18°C° 0.1 mm 1 mps 747 mmHg 96%
    05:00 -18°C° 0.1 mm 1 mps 747 mmHg 96%
    06:00 -18°C° 0.1 mm 0 mps 747 mmHg 96%
    07:00 -17°C° 0 mm 1 mps 747 mmHg 96%
    08:00 -17°C° 0 mm 1 mps 747 mmHg 96%
    09:00 -17°C° 0 mm 1 mps 747 mmHg 96%
    10:00 -16°C° 0.1 mm 1 mps 747 mmHg 95%
    11:00 -18°C° 0.1 mm 2 mps 747 mmHg 94%
    12:00 -18°C° 0.1 mm 3 mps 747 mmHg 93%
    13:00 -18°C° 0 mm 3 mps 747 mmHg 93%
    14:00 -18°C° 0 mm 3 mps 747 mmHg 92%
    15:00 -18°C° 0 mm 3 mps 747 mmHg 92%
    16:00 -19°C° 0 mm 3 mps 747 mmHg 93%
    17:00 -21°C° 0 mm 3 mps 748 mmHg 94%
    18:00 -22°C° 0 mm 3 mps 749 mmHg 95%
    19:00 -23°C° 0 mm 3 mps 749 mmHg 95%
    20:00 -24°C° 0 mm 3 mps 749 mmHg 95%
    21:00 -25°C° 0 mm 3 mps 750 mmHg 95%
    22:00 -25°C° 0 mm 3 mps 750 mmHg 94%
    23:00 -26°C° 0 mm 3 mps 750 mmHg 93%

    Day after tomorrow, 19 January, Friday

    Time Temperature Precipitation Wind Pressure Humidity
    00:00 -26°C° 0 mm 3 mps 751 mmHg 92%
    01:00 -26°C° 0 mm 3 mps 751 mmHg 91%
    02:00 -27°C° 0 mm 3 mps 751 mmHg 90%
    03:00 -27°C° 0 mm 3 mps 751 mmHg 90%
    04:00 -29°C° 0 mm 3 mps 752 mmHg 90%
    05:00 -29°C° 0 mm 3 mps 752 mmHg 90%
    06:00 -29°C° 0 mm 3 mps 752 mmHg 90%
    07:00 -27°C° 0 mm 2 mps 752 mmHg 91%
    08:00 -27°C° 0 mm 2 mps 752 mmHg 91%
    09:00 -26°C° 0 mm 2 mps 752 mmHg 92%
    10:00 -24°C° 0 mm 2 mps 752 mmHg 90%
    11:00 -23°C° 0 mm 2 mps 752 mmHg 89%
    12:00 -20°C° 0 mm 2 mps 752 mmHg 88%
    13:00 -17°C° 0 mm 1 mps 751 mmHg 88%
    14:00 -17°C° 0 mm 1 mps 751 mmHg 89%
    15:00 -16°C° 0 mm 1 mps 750 mmHg 90%
    16:00 -17°C° 0 mm 1 mps 750 mmHg 91%
    17:00 -20°C° 0 mm 2 mps 750 mmHg 91%
    18:00 -21°C° 0 mm 2 mps 750 mmHg 92%
    19:00 -21°C° 0 mm 2 mps 749 mmHg 92%
    20:00 -21°C° 0 mm 2 mps 749 mmHg 92%
    21:00 -21°C° 0 mm 2 mps 749 mmHg 92%
    22:00 -20°C° 0.1 mm 2 mps 748 mmHg 93%
    23:00 -19°C° 0.1 mm 2 mps 748 mmHg 94%

    20 January, Saturday

    Time Temperature Precipitation Wind Pressure Humidity
    00:00 -19°C° 0.1 mm 2 mps 747 mmHg 94%
    01:00 -18°C° 0.1 mm 2 mps 747 mmHg 95%
    02:00 -18°C° 0.1 mm 2 mps 747 mmHg 95%
    03:00 -18°C° 0.1 mm 2 mps 747 mmHg 95%
    04:00 -21°C° 0.1 mm 3 mps 747 mmHg 95%
    05:00 -21°C° 0.1 mm 3 mps 747 mmHg 95%
    06:00 -23°C° 0.1 mm 4 mps 747 mmHg 95%
    07:00 -24°C° 0 mm 3 mps 747 mmHg 94%
    08:00 -25°C° 0 mm 3 mps 747 mmHg 93%
    09:00 -26°C° 0 mm 3 mps 747 mmHg 92%
    10:00 -25°C° 0 mm 3 mps 748 mmHg 90%
    11:00 -23°C° 0 mm 3 mps 748 mmHg 87%
    12:00 -22°C° 0 mm 4 mps 748 mmHg 84%
    13:00 -23°C° 0 mm 4 mps 748 mmHg 84%
    14:00 -23°C° 0 mm 4 mps 748 mmHg 83%
    15:00 -25°C° 0 mm 5 mps 748 mmHg 82%
    16:00 -26°C° 0 mm 5 mps 748 mmHg 84%
    17:00 -27°C° 0 mm 4 mps 748 mmHg 86%
    18:00 -30°C° 0 mm 4 mps 749 mmHg 87%
    19:00 -30°C° 0 mm 4 mps 749 mmHg 88%
    20:00 -30°C° 0 mm 4 mps 749 mmHg 89%
    21:00 -31°C° 0 mm 4 mps 749 mmHg 89%
    22:00 -31°C° 0 mm 4 mps 749 mmHg 90%
    23:00 -31°C° 0 mm 4 mps 749 mmHg 90%

    21 January, Sunday

    Time Temperature Precipitation Wind Pressure Humidity
    00:00 -32°C° 0 mm 4 mps 749 mmHg 91%
    01:00 -32°C° 0 mm 4 mps 749 mmHg 91%
    02:00 -32°C° 0 mm 4 mps 749 mmHg 91%
    03:00 -33°C° 0 mm 4 mps 749 mmHg 91%
    04:00 -33°C° 0 mm 4 mps 749 mmHg 91%
    05:00 -33°C° 0 mm 4 mps 749 mmHg 92%
    06:00 -34°C° 0 mm 4 mps 749 mmHg 92%
    07:00 -33°C° 0 mm 4 mps 750 mmHg 92%
    08:00 -33°C° 0 mm 4 mps 750 mmHg 92%
    09:00 -34°C° 0 mm 5 mps 751 mmHg 92%
    10:00 -32°C° 0 mm 5 mps 751 mmHg 90%
    11:00 -31°C° 0 mm 5 mps 751 mmHg 89%
    12:00 -29°C° 0 mm 5 mps 751 mmHg 87%
    13:00 -28°C° 0 mm 5 mps 751 mmHg 87%
    14:00 -28°C° 0 mm 5 mps 751 mmHg 86%
    15:00 -28°C° 0 mm 5 mps 751 mmHg 86%
    16:00 -29°C° 0 mm 5 mps 751 mmHg 87%
    17:00 -29°C° 0 mm 5 mps 751 mmHg 88%
    18:00 -31°C° 0 mm 5 mps 752 mmHg 89%
    19:00 -31°C° 0 mm 4 mps 752 mmHg 89%
    20:00 -32°C° 0 mm 4 mps 752 mmHg 90%
    21:00 -32°C° 0 mm 4 mps 752 mmHg 90%
    22:00 -33°C° 0 mm 4 mps 752 mmHg 90%
    23:00 -33°C° 0 mm 4 mps 752 mmHg 90%

    22 January, Monday

    Time Temperature Precipitation Wind Pressure Humidity
    00:00 -34°C° 0 mm 4 mps 752 mmHg 91%
    01:00 -34°C° 0 mm 4 mps 752 mmHg 90%
    02:00 -35°C° 0 mm 5 mps 752 mmHg 90%
    03:00 -35°C° 0 mm 5 mps 752 mmHg 90%
    04:00 -37°C° 0 mm 5 mps 752 mmHg 90%
    05:00 -37°C° 0 mm 5 mps 752 mmHg 90%
    06:00 -37°C° 0 mm 5 mps 751 mmHg 90%
    07:00 -37°C° 0 mm 5 mps 751 mmHg 90%
    08:00 -35°C° 0 mm 5 mps 752 mmHg 89%
    09:00 -36°C° 0 mm 6 mps 752 mmHg 89%
    10:00 -35°C° 0 mm 6 mps 751 mmHg 88%
    11:00 -34°C° 0 mm 6 mps 751 mmHg 87%
    12:00 -33°C° 0 mm 7 mps 751 mmHg 86%
    13:00 -33°C° 0 mm 6 mps 751 mmHg 85%
    14:00 -33°C° 0 mm 6 mps 751 mmHg 85%
    15:00 -31°C° 0 mm 6 mps 750 mmHg 85%
    16:00 -33°C° 0 mm 6 mps 750 mmHg 86%
    17:00 -33°C° 0 mm 5 mps 751 mmHg 87%
    18:00 -34°C° 0 mm 5 mps 751 mmHg 88%
    19:00 -34°C° 0 mm 5 mps 751 mmHg 88%
    20:00 -34°C° 0 mm 4 mps 751 mmHg 89%
    21:00 -34°C° 0 mm 4 mps 751 mmHg 90%
    22:00 -34°C° 0 mm 4 mps 750 mmHg 90%
    23:00 -35°C° 0 mm 4 mps 750 mmHg 90%
    Show more